START_TIME,STEP,MOV.,H8,t_acc.,H43,t_acc.,M25,t_acc.,H9,t_acc.
1979-07-07 03:00:30.140 ,1,0,0.,12.0,0.,12.0,0.,12.0,0.,12.0
1979-07-07 03:00:42.140 ,1,0,0.,12.0,0.,12.0,0.,12.0,0.,12.0
1979-07-07 03:00:54.140 ,2,0,0.,12.0,0.,12.0,0.,12.0,0.,12.0
1979-07-07 03:01:06.140 ,2,0,0.,12.0,0.,12.0,0.,12.0,0.,12.0
1979-07-07 03:01:18.140 ,2,0,0.,12.0,0.,12.0,0.,12.0,0.,12.0
1979-07-07 03:01:30.140 ,2,0,1.,12.0,0.,12.0,0.,12.0,0.,12.0
1979-07-07 03:01:42.140 ,3,0,0.,12.0,0.,12.0,0.,12.0,0.,12.0
1979-07-07 03:01:54.140 ,3,0,1.,12.0,0.,12.0,0.,12.0,0.,12.0
1979-07-07 03:02:06.140 ,3,0,0.,12.0,0.,12.0,0.,12.0,0.,12.0
1979-07-07 03:02:18.140 ,3,0,0.,12.0,0.,12.0,0.,12.0,0.,12.0
1979-07-07 03:02:30.140 ,4,0,0.,12.0,0.,12.0,0.,12.0,0.,12.0
1979-07-07 03:02:42.140 ,4,0,0.,12.0,0.,12.0,0.,12.0,0.,12.0
1979-07-07 03:02:54.140 ,4,0,0.,12.0,0.,12.0,0.,12.0,0.,12.0
1979-07-07 03:03:06.140 ,4,0,0.,12.0,0.,12.0,0.,12.0,0.,12.0
1979-07-07 03:03:18.140 ,5,0,0.,12.0,0.,12.0,0.,12.0,0.,12.0
1979-07-07 03:03:30.140 ,5,0,0.,12.0,0.,12.0,0.,12.0,0.,12.0
1979-07-07 03:03:42.140 ,5,0,0.,12.0,0.,12.0,0.,12.0,0.,12.0
1979-07-07 03:03:54.140 ,5,0,0.,12.0,0.,12.0,0.,12.0,0.,12.0
1979-07-07 03:04:06.140 ,6,0,1.,12.0,0.,12.0,0.,12.0,0.,12.0
1979-07-07 03:04:18.140 ,6,0,0.,12.0,0.,12.0,0.,12.0,0.,12.0
1979-07-07 03:04:30.140 ,6,0,0.,12.0,0.,12.0,0.,12.0,0.,12.0
1979-07-07 03:04:42.140 ,6,0,1.,12.0,0.,12.0,0.,12.0,0.,12.0
1979-07-07 03:04:54.140 ,7,0,1.,12.0,0.,12.0,0.,12.0,0.,12.0
1979-07-07 03:05:06.140 ,7,0,0.,12.0,0.,12.0,0.,12.0,0.,12.0
1979-07-07 03:05:18.140 ,7,0,0.,12.0,0.,12.0,0.,12.0,0.,12.0
1979-07-07 03:05:30.140 ,7,0,0.,12.0,0.,12.0,0.,12.0,0.,12.0
1979-07-07 03:05:42.140 ,7,0,0.,12.0,0.,12.0,0.,12.0,0.,12.0
1979-07-07 03:05:54.140 ,7,0,0.,12.0,0.,12.0,0.,12.0,0.,12.0
1979-07-07 03:06:06.140 ,7,0,0.,12.0,0.,12.0,0.,12.0,0.,12.0
1979-07-07 03:06:18.140 ,7,0,0.,12.0,0.,12.0,0.,12.0,0.,12.0
1979-07-07 03:06:30.140 ,6,0,0.,12.0,0.,12.0,0.,12.0,0.,12.0
1979-07-07 03:06:42.140 ,6,0,0.,12.0,0.,12.0,0.,12.0,0.,12.0
1979-07-07 03:06:54.140 ,6,0,1.,12.0,0.,12.0,0.,12.0,0.,12.0
1979-07-07 03:07:06.140 ,6,0,1.,12.0,0.,12.0,0.,12.0,0.,12.0
1979-07-07 03:07:18.140 ,5,0,1.,12.0,0.,12.0,0.,12.0,0.,12.0
1979-07-07 03:07:30.140 ,5,0,0.,12.0,0.,12.0,0.,12.0,0.,12.0
1979-07-07 03:07:42.140 ,5,0,0.,12.0,0.,12.0,0.,12.0,0.,12.0
1979-07-07 03:07:54.140 ,5,0,1.,12.0,0.,12.0,0.,12.0,0.,12.0
1979-07-07 03:08:06.140 ,4,0,1.,12.0,0.,12.0,0.,12.0,0.,12.0
1979-07-07 03:08:18.140 ,4,0,1.,12.0,0.,12.0,0.,12.0,0.,12.0
1979-07-07 03:08:30.140 ,4,0,0.,12.0,0.,12.0,0.,12.0,0.,12.0
1979-07-07 03:08:42.140 ,4,0,0.,12.0,0.,12.0,0.,12.0,0.,12.0
1979-07-07 03:08:54.140 ,3,0,0.,12.0,0.,12.0,0.,12.0,0.,12.0
1979-07-07 03:09:06.140 ,3,0,0.,12.0,0.,12.0,0.,12.0,0.,12.0
1979-07-07 03:09:18.140 ,3,0,0.,12.0,0.,12.0,0.,12.0,0.,12.0
1979-07-07 03:09:30.140 ,3,0,0.,12.0,0.,12.0,0.,12.0,0.,12.0
1979-07-07 03:09:42.140 ,2,0,0.,12.0,0.,12.0,0.,12.0,0.,12.0
1979-07-07 03:09:54.140 ,2,0,0.,12.0,0.,12.0,0.,12.0,0.,12.0
1979-07-07 03:10:06.140 ,2,0,1.,12.0,0.,12.0,0.,12.0,0.,12.0
1979-07-07 03:10:18.140 ,2,0,0.,12.0,0.,12.0,0.,12.0,0.,12.0
1979-07-07 03:10:30.140 ,1,0,1.,12.0,0.,12.0,0.,12.0,0.,12.0
1979-07-07 03:10:42.140 ,1,0,0.,12.0,0.,12.0,0.,12.0,0.,12.0
1979-07-07 03:10:54.140 ,1,0,0.,12.0,0.,12.0,0.,12.0,0.,12.0
1979-07-07 03:11:06.140 ,1,0,1.,12.0,0.,12.0,0.,12.0,0.,12.0
1979-07-07 03:11:18.140 ,0,0,0.,12.0,0.,12.0,0.,12.0,0.,12.0
1979-07-07 03:11:30.140 ,0,0,0.,12.0,0.,12.0,0.,12.0,0.,12.0
1979-07-07 03:11:42.140 ,0,0,0.,12.0,0.,12.0,0.,12.0,0.,12.0
1979-07-07 03:11:54.140 ,0,0,0.,12.0,0.,12.0,0.,12.0,0.,12.0
1979-07-07 03:12:06.140 ,0,0,0.,12.0,0.,12.0,0.,12.0,0.,12.0
1979-07-07 03:12:18.140 ,0,0,0.,12.0,0.,12.0,0.,12.0,0.,12.0
1979-07-07 03:12:30.140 ,0,0,0.,12.0,0.,12.0,0.,12.0,0.,12.0
1979-07-07 03:12:42.140 ,0,0,0.,12.0,1.,12.0,0.,12.0,0.,12.0
1979-07-07 03:12:54.140 ,1,0,0.,12.0,0.,12.0,0.,12.0,0.,12.0
1979-07-07 03:13:06.140 ,1,0,0.,12.0,0.,12.0,0.,12.0,0.,12.0
1979-07-07 03:13:18.140 ,1,0,0.,12.0,0.,12.0,0.,12.0,0.,12.0
1979-07-07 03:13:30.140 ,1,0,0.,12.0,0.,12.0,0.,12.0,0.,12.0
1979-07-07 03:13:42.140 ,2,0,0.,12.0,0.,12.0,0.,12.0,0.,12.0
1979-07-07 03:13:54.140 ,2,0,0.,12.0,0.,12.0,0.,12.0,0.,12.0
1979-07-07 03:14:06.140 ,2,0,0.,12.0,0.,12.0,0.,12.0,0.,12.0
1979-07-07 03:14:18.140 ,2,0,0.,12.0,0.,12.0,0.,12.0,0.,12.0
1979-07-07 03:14:30.140 ,3,0,0.,12.0,0.,12.0,0.,12.0,0.,12.0
1979-07-07 03:14:42.140 ,3,0,0.,12.0,0.,12.0,0.,12.0,0.,12.0
1979-07-07 03:14:54.140 ,3,0,1.,12.0,0.,12.0,0.,12.0,0.,12.0
1979-07-07 03:15:06.140 ,3,0,0.,12.0,0.,12.0,0.,12.0,0.,12.0
1979-07-07 03:15:18.140 ,4,0,0.,12.0,0.,12.0,0.,12.0,0.,12.0
1979-07-07 03:15:30.140 ,4,0,0.,12.0,0.,12.0,0.,12.0,0.,12.0
1979-07-07 03:15:42.140 ,0,0,0.,12.0,0.,12.0,0.,12.0,0.,12.0
1979-07-07 03:15:54.140 ,0,0,0.,12.0,0.,12.0,0.,12.0,0.,12.0
1979-07-07 03:16:06.140 ,5,0,0.,12.0,0.,12.0,0.,12.0,0.,12.0
1979-07-07 03:16:18.140 ,5,0,0.,12.0,0.,12.0,0.,12.0,0.,12.0
1979-07-07 03:16:30.140 ,5,0,0.,12.0,0.,12.0,0.,12.0,0.,12.0
1979-07-07 03:16:42.140 ,5,0,0.,12.0,0.,12.0,0.,12.0,0.,12.0
1979-07-07 03:16:54.140 ,6,0,1.,12.0,1.,12.0,0.,12.0,0.,12.0
1979-07-07 03:17:06.140 ,6,0,0.,12.0,0.,12.0,0.,12.0,0.,12.0
1979-07-07 03:17:18.140 ,6,0,0.,12.0,0.,12.0,0.,12.0,0.,12.0
1979-07-07 03:17:30.140 ,6,0,1.,12.0,0.,12.0,0.,12.0,0.,12.0
1979-07-07 03:17:42.140 ,7,0,1.,12.0,0.,12.0,0.,12.0,0.,12.0
1979-07-07 03:17:54.140 ,7,0,0.,12.0,0.,12.0,0.,12.0,0.,12.0
1979-07-07 03:18:06.140 ,7,0,0.,12.0,0.,12.0,0.,12.0,0.,12.0
1979-07-07 03:18:18.140 ,7,0,0.,12.0,0.,12.0,0.,12.0,0.,12.0
1979-07-07 03:18:30.140 ,7,0,0.,12.0,0.,12.0,0.,12.0,0.,12.0
1979-07-07 03:18:42.140 ,7,0,0.,12.0,0.,12.0,0.,12.0,0.,12.0
1979-07-07 03:18:54.140 ,7,0,0.,12.0,0.,12.0,0.,12.0,0.,12.0
1979-07-07 03:19:06.140 ,7,0,0.,12.0,0.,12.0,0.,12.0,0.,12.0
1979-07-07 03:19:18.140 ,6,0,0.,12.0,0.,12.0,0.,12.0,0.,12.0
1979-07-07 03:19:30.140 ,6,0,0.,12.0,0.,12.0,0.,12.0,0.,12.0
1979-07-07 03:19:42.140 ,6,0,0.,12.0,0.,12.0,0.,12.0,0.,12.0
1979-07-07 03:19:54.140 ,6,0,0.,12.0,0.,12.0,0.,12.0,0.,12.0
1979-07-07 03:20:06.140 ,5,0,1.,12.0,0.,12.0,0.,12.0,0.,12.0
1979-07-07 03:20:18.140 ,5,0,0.,12.0,0.,12.0,0.,12.0,0.,12.0
1979-07-07 03:20:30.140 ,5,0,0.,12.0,0.,12.0,0.,12.0,0.,12.0
1979-07-07 03:20:42.140 ,5,0,,0,,0,,0,,0
1979-07-07 03:20:54.140 ,4,0,0.,12.0,0.,12.0,0.,12.0,0.,12.0
1979-07-07 03:21:06.140 ,4,0,0.,12.0,0.,12.0,0.,12.0,0.,12.0
1979-07-07 03:21:18.140 ,4,0,1.,12.0,0.,12.0,0.,12.0,0.,12.0
1979-07-07 03:21:30.140 ,4,0,0.,12.0,0.,12.0,0.,12.0,0.,12.0
1979-07-07 03:21:42.140 ,3,0,0.,12.0,0.,12.0,0.,12.0,0.,12.0
1979-07-07 03:21:54.140 ,3,0,2.,12.0,0.,12.0,0.,12.0,0.,12.0
1979-07-07 03:22:06.140 ,3,0,0.,12.0,0.,12.0,0.,12.0,0.,12.0
1979-07-07 03:22:18.140 ,3,0,0.,12.0,0.,12.0,0.,12.0,0.,12.0
1979-07-07 03:22:30.140 ,2,0,1.,12.0,0.,12.0,0.,12.0,0.,12.0
1979-07-07 03:22:42.140 ,2,0,0.,12.0,0.,12.0,0.,12.0,0.,12.0
1979-07-07 03:22:54.140 ,2,0,0.,12.0,0.,12.0,0.,12.0,0.,12.0
1979-07-07 03:23:06.140 ,2,0,0.,12.0,0.,12.0,0.,12.0,0.,12.0
1979-07-07 03:23:18.140 ,1,0,0.,12.0,0.,12.0,0.,12.0,0.,12.0
1979-07-07 03:23:30.140 ,1,0,0.,12.0,0.,12.0,0.,12.0,0.,12.0
1979-07-07 03:23:42.140 ,1,0,1.,12.0,0.,12.0,0.,12.0,0.,12.0
1979-07-07 03:23:54.140 ,1,0,0.,12.0,0.,12.0,0.,12.0,0.,12.0
1979-07-07 03:24:06.140 ,0,0,0.,12.0,0.,12.0,0.,12.0,0.,12.0
1979-07-07 03:24:18.140 ,0,0,1.,12.0,0.,12.0,0.,12.0,0.,12.0
1979-07-07 03:24:30.140 ,0,0,0.,12.0,0.,12.0,0.,12.0,0.,12.0
1979-07-07 03:24:42.140 ,0,0,0.,12.0,0.,12.0,0.,12.0,0.,12.0
1979-07-07 03:24:54.140 ,0,0,0.,12.0,0.,12.0,0.,12.0,0.,12.0
1979-07-07 03:25:06.140 ,0,0,0.,12.0,0.,12.0,0.,12.0,0.,12.0
1979-07-07 03:25:18.140 ,0,0,0.,12.0,0.,12.0,0.,12.0,0.,12.0
1979-07-07 03:25:30.140 ,0,0,0.,12.0,0.,12.0,0.,12.0,0.,12.0
1979-07-07 03:25:42.140 ,1,0,0.,12.0,0.,12.0,0.,12.0,0.,12.0
1979-07-07 03:25:54.140 ,1,0,0.,12.0,0.,12.0,0.,12.0,0.,12.0
1979-07-07 03:26:06.140 ,1,0,0.,12.0,0.,12.0,0.,12.0,0.,12.0
1979-07-07 03:26:18.140 ,1,0,0.,12.0,0.,12.0,0.,12.0,0.,12.0
1979-07-07 03:26:30.140 ,2,0,0.,12.0,0.,12.0,0.,12.0,0.,12.0
1979-07-07 03:26:42.140 ,2,0,0.,12.0,0.,12.0,0.,12.0,0.,12.0
1979-07-07 03:26:54.140 ,2,0,,0,,0,,0,,0
1979-07-07 03:27:06.140 ,2,0,0.,12.0,0.,12.0,0.,12.0,0.,12.0
1979-07-07 03:27:18.140 ,3,0,0.,12.0,0.,12.0,0.,12.0,0.,12.0
1979-07-07 03:27:30.140 ,3,0,0.,12.0,0.,12.0,0.,12.0,0.,12.0
1979-07-07 03:27:42.140 ,3,0,0.,12.0,0.,12.0,0.,12.0,0.,12.0
1979-07-07 03:27:54.140 ,3,0,0.,12.0,0.,12.0,0.,12.0,0.,12.0
1979-07-07 03:28:06.140 ,4,0,0.,12.0,0.,12.0,0.,12.0,0.,12.0
1979-07-07 03:28:18.140 ,4,0,0.,12.0,0.,12.0,0.,12.0,0.,12.0
1979-07-07 03:28:30.140 ,4,0,1.,12.0,0.,12.0,0.,12.0,0.,12.0
1979-07-07 03:28:42.140 ,4,0,1.,12.0,0.,12.0,0.,12.0,0.,12.0
1979-07-07 03:28:54.140 ,5,0,0.,12.0,0.,12.0,0.,12.0,0.,12.0
1979-07-07 03:29:06.140 ,5,0,0.,12.0,0.,12.0,0.,12.0,0.,12.0
1979-07-07 03:29:18.140 ,5,0,0.,12.0,0.,12.0,0.,12.0,0.,12.0
1979-07-07 03:29:30.140 ,5,0,1.,12.0,0.,12.0,0.,12.0,0.,12.0
1979-07-07 03:29:42.140 ,6,0,0.,12.0,0.,12.0,0.,12.0,0.,12.0
1979-07-07 03:29:54.140 ,6,0,1.,12.0,0.,12.0,0.,12.0,0.,12.0
1979-07-07 03:30:06.140 ,6,0,0.,12.0,0.,12.0,0.,12.0,0.,12.0
1979-07-07 03:30:18.140 ,6,0,0.,12.0,0.,12.0,0.,12.0,0.,12.0
1979-07-07 03:30:30.140 ,7,0,0.,12.0,0.,12.0,0.,12.0,0.,12.0
1979-07-07 03:30:42.140 ,7,0,0.,12.0,0.,12.0,0.,12.0,0.,12.0
1979-07-07 03:30:54.140 ,7,0,0.,12.0,0.,12.0,0.,12.0,0.,12.0
1979-07-07 03:31:06.140 ,7,0,0.,12.0,0.,12.0,0.,12.0,0.,12.0
1979-07-07 03:31:18.140 ,3,1,0.,12.0,0.,12.0,0.,12.0,0.,12.0
1979-07-07 03:31:30.140 ,3,1,0.,12.0,0.,12.0,0.,12.0,0.,12.0
1979-07-07 03:31:42.140 ,0,1,0.,12.0,0.,12.0,0.,12.0,0.,12.0
1979-07-07 03:31:54.140 ,0,1,0.,12.0,0.,12.0,0.,12.0,0.,12.0
1979-07-07 03:32:06.140 ,4,1,1.,12.0,0.,12.0,0.,12.0,0.,12.0
1979-07-07 03:32:18.140 ,4,1,0.,12.0,0.,12.0,0.,12.0,0.,12.0
1979-07-07 03:32:30.140 ,7,1,0.,12.0,0.,12.0,0.,12.0,0.,12.0
1979-07-07 03:32:42.140 ,7,1,0.,12.0,0.,12.0,0.,12.0,0.,12.0
1979-07-07 03:32:54.140 ,3,1,0.,12.0,0.,12.0,0.,12.0,0.,12.0
1979-07-07 03:33:06.140 ,3,1,0.,12.0,0.,12.0,0.,12.0,0.,12.0
1979-07-07 03:33:18.140 ,0,1,1.,12.0,0.,12.0,0.,12.0,0.,12.0
1979-07-07 03:33:30.140 ,0,1,1.,12.0,0.,12.0,0.,12.0,0.,12.0
1979-07-07 03:33:42.140 ,4,1,1.,12.0,0.,12.0,0.,12.0,0.,12.0
1979-07-07 03:33:54.140 ,4,1,0.,12.0,0.,12.0,0.,12.0,0.,12.0
1979-07-07 03:34:06.140 ,7,1,1.,12.0,0.,12.0,0.,12.0,0.,12.0
1979-07-07 03:34:18.140 ,7,1,0.,12.0,0.,12.0,0.,12.0,0.,12.0
1979-07-07 03:34:30.140 ,3,1,0.,12.0,0.,12.0,0.,12.0,0.,12.0
1979-07-07 03:34:42.140 ,3,1,0.,12.0,0.,12.0,0.,12.0,0.,12.0
1979-07-07 03:34:54.140 ,0,1,0.,12.0,0.,12.0,0.,12.0,0.,12.0
1979-07-07 03:35:06.140 ,0,1,0.,12.0,0.,12.0,0.,12.0,0.,12.0
1979-07-07 03:35:18.140 ,4,1,1.,12.0,0.,12.0,0.,12.0,0.,12.0
1979-07-07 03:35:30.140 ,4,1,0.,12.0,0.,12.0,0.,12.0,0.,12.0
1979-07-07 03:35:42.140 ,7,1,2.,12.0,0.,12.0,0.,12.0,0.,12.0
1979-07-07 03:35:54.140 ,7,1,0.,12.0,0.,12.0,0.,12.0,0.,12.0
1979-07-07 03:36:06.140 ,3,1,0.,12.0,0.,12.0,0.,12.0,0.,12.0
1979-07-07 03:36:18.140 ,3,1,1.,12.0,0.,12.0,0.,12.0,0.,12.0
1979-07-07 03:36:30.140 ,0,1,0.,12.0,0.,12.0,0.,12.0,0.,12.0
1979-07-07 03:36:42.140 ,0,1,0.,12.0,0.,12.0,0.,12.0,0.,12.0
1979-07-07 03:36:54.140 ,4,1,0.,12.0,0.,12.0,0.,12.0,0.,12.0
1979-07-07 03:37:06.140 ,4,1,0.,12.0,0.,12.0,0.,12.0,0.,12.0
1979-07-07 03:37:18.140 ,7,1,1.,12.0,0.,12.0,0.,12.0,0.,12.0
1979-07-07 03:37:30.140 ,7,1,0.,12.0,0.,12.0,0.,12.0,0.,12.0
1979-07-07 03:37:42.140 ,3,1,0.,12.0,0.,12.0,0.,12.0,0.,12.0
1979-07-07 03:37:54.140 ,3,1,0.,12.0,0.,12.0,0.,12.0,0.,12.0
1979-07-07 03:38:06.140 ,0,1,0.,12.0,0.,12.0,0.,12.0,0.,12.0
1979-07-07 03:38:18.140 ,0,1,0.,12.0,0.,12.0,0.,12.0,0.,12.0
1979-07-07 03:38:30.140 ,4,1,0.,12.0,0.,12.0,0.,12.0,0.,12.0
1979-07-07 03:38:42.140 ,4,1,0.,12.0,0.,12.0,0.,12.0,0.,12.0
1979-07-07 03:38:54.140 ,7,1,0.,12.0,0.,12.0,0.,12.0,0.,12.0
1979-07-07 03:39:06.140 ,7,1,0.,12.0,0.,12.0,0.,12.0,0.,12.0
1979-07-07 03:39:18.140 ,3,1,0.,12.0,0.,12.0,0.,12.0,0.,12.0
1979-07-07 03:39:30.140 ,3,1,1.,12.0,0.,12.0,0.,12.0,0.,12.0
1979-07-07 03:39:42.140 ,0,1,0.,12.0,0.,12.0,0.,12.0,0.,12.0
1979-07-07 03:39:54.140 ,0,1,0.,12.0,0.,12.0,0.,12.0,0.,12.0
1979-07-07 03:40:06.140 ,4,1,0.,12.0,0.,12.0,0.,12.0,0.,12.0
1979-07-07 03:40:18.140 ,4,1,0.,12.0,0.,12.0,0.,12.0,0.,12.0
1979-07-07 03:40:30.140 ,7,1,0.,12.0,0.,12.0,0.,12.0,0.,12.0
1979-07-07 03:40:42.140 ,7,1,0.,12.0,0.,12.0,0.,12.0,0.,12.0
1979-07-07 03:40:54.140 ,3,1,0.,12.0,0.,12.0,0.,12.0,0.,12.0
1979-07-07 03:41:06.140 ,3,1,0.,12.0,0.,12.0,0.,12.0,0.,12.0
1979-07-07 03:41:18.140 ,0,1,0.,12.0,0.,12.0,0.,12.0,0.,12.0
1979-07-07 03:41:30.140 ,0,1,0.,12.0,0.,12.0,0.,12.0,0.,12.0
1979-07-07 03:41:42.140 ,0,0,0.,12.0,0.,12.0,0.,12.0,0.,12.0
1979-07-07 03:41:54.140 ,0,0,0.,12.0,0.,12.0,0.,12.0,0.,12.0
1979-07-07 03:42:06.140 ,0,0,0.,12.0,0.,12.0,0.,12.0,0.,12.0
1979-07-07 03:42:18.140 ,0,0,1.,12.0,0.,12.0,0.,12.0,0.,12.0
1979-07-07 03:42:30.140 ,5,0,0.,12.0,0.,12.0,0.,12.0,0.,12.0
1979-07-07 03:42:42.140 ,5,0,0.,12.0,0.,12.0,0.,12.0,0.,12.0
1979-07-07 03:42:54.140 ,5,0,1.,12.0,0.,12.0,0.,12.0,0.,12.0
1979-07-07 03:43:06.140 ,5,0,1.,12.0,0.,12.0,0.,12.0,0.,12.0
1979-07-07 03:43:18.140 ,4,0,0.,12.0,0.,12.0,0.,12.0,0.,12.0
1979-07-07 03:43:30.140 ,4,0,0.,12.0,0.,12.0,0.,12.0,0.,12.0
1979-07-07 03:43:42.140 ,4,0,1.,12.0,0.,12.0,0.,12.0,0.,12.0
1979-07-07 03:43:54.140 ,4,0,0.,12.0,0.,12.0,0.,12.0,0.,12.0
1979-07-07 03:44:06.140 ,3,0,0.,12.0,0.,12.0,0.,12.0,0.,12.0
1979-07-07 03:44:18.140 ,3,0,0.,12.0,0.,12.0,0.,12.0,0.,12.0
1979-07-07 03:44:30.140 ,3,0,0.,12.0,0.,12.0,0.,12.0,0.,12.0
1979-07-07 03:44:42.140 ,3,0,0.,12.0,0.,12.0,0.,12.0,0.,12.0
1979-07-07 03:44:54.140 ,2,0,0.,12.0,0.,12.0,0.,12.0,0.,12.0
1979-07-07 03:45:06.140 ,2,0,0.,12.0,0.,12.0,0.,12.0,0.,12.0
1979-07-07 03:45:18.140 ,2,0,0.,12.0,0.,12.0,0.,12.0,0.,12.0
1979-07-07 03:45:30.140 ,2,0,0.,12.0,0.,12.0,0.,12.0,0.,12.0
1979-07-07 03:45:42.140 ,1,0,0.,12.0,0.,12.0,0.,12.0,0.,12.0
1979-07-07 03:45:54.140 ,1,0,0.,12.0,0.,12.0,0.,12.0,0.,12.0
1979-07-07 03:46:06.140 ,1,0,0.,12.0,0.,12.0,0.,12.0,0.,12.0
1979-07-07 03:46:18.140 ,1,0,0.,12.0,0.,12.0,0.,12.0,0.,12.0
1979-07-07 03:46:30.140 ,0,0,0.,12.0,0.,12.0,0.,12.0,0.,12.0
1979-07-07 03:46:42.140 ,0,0,1.,12.0,0.,12.0,0.,12.0,0.,12.0
1979-07-07 03:46:54.140 ,0,0,0.,12.0,0.,12.0,0.,12.0,0.,12.0
1979-07-07 03:47:06.140 ,0,0,0.,12.0,0.,12.0,0.,12.0,0.,12.0
1979-07-07 03:47:18.140 ,0,0,0.,12.0,0.,12.0,0.,12.0,0.,12.0
1979-07-07 03:47:30.140 ,0,0,0.,12.0,0.,12.0,0.,12.0,0.,12.0
1979-07-07 03:47:42.140 ,0,0,0.,12.0,0.,12.0,0.,12.0,0.,12.0
1979-07-07 03:47:54.140 ,0,0,0.,12.0,0.,12.0,0.,12.0,0.,12.0
1979-07-07 03:48:06.140 ,1,0,0.,12.0,0.,12.0,0.,12.0,0.,12.0
1979-07-07 03:48:18.140 ,1,0,1.,12.0,0.,12.0,0.,12.0,0.,12.0
1979-07-07 03:48:30.140 ,1,0,0.,12.0,0.,12.0,0.,12.0,0.,12.0
1979-07-07 03:48:42.140 ,1,0,0.,12.0,0.,12.0,0.,12.0,0.,12.0
1979-07-07 03:48:54.140 ,2,0,1.,12.0,0.,12.0,0.,12.0,0.,12.0
1979-07-07 03:49:06.140 ,2,0,1.,12.0,0.,12.0,0.,12.0,0.,12.0
1979-07-07 03:49:18.140 ,2,0,0.,12.0,0.,12.0,0.,12.0,0.,12.0
1979-07-07 03:49:30.140 ,2,0,0.,12.0,0.,12.0,0.,12.0,0.,12.0
1979-07-07 03:49:42.130 ,3,0,1.,12.0,0.,12.0,0.,12.0,0.,12.0
1979-07-07 03:49:54.130 ,3,0,0.,12.0,0.,12.0,0.,12.0,0.,12.0
1979-07-07 03:50:06.130 ,3,0,0.,12.0,0.,12.0,0.,12.0,0.,12.0
1979-07-07 03:50:18.130 ,3,0,1.,12.0,0.,12.0,0.,12.0,0.,12.0
1979-07-07 03:50:30.130 ,4,0,1.,12.0,0.,12.0,0.,12.0,0.,12.0
1979-07-07 03:50:42.130 ,4,0,0.,12.0,0.,12.0,0.,12.0,0.,12.0
1979-07-07 03:50:54.130 ,4,0,1.,12.0,0.,12.0,0.,12.0,0.,12.0
1979-07-07 03:51:06.130 ,4,0,1.,12.0,0.,12.0,0.,12.0,0.,12.0
1979-07-07 03:51:18.130 ,5,0,0.,12.0,0.,12.0,0.,12.0,0.,12.0
1979-07-07 03:51:30.130 ,5,0,0.,12.0,0.,12.0,0.,12.0,0.,12.0
1979-07-07 03:51:42.130 ,5,0,1.,12.0,0.,12.0,0.,12.0,0.,12.0
1979-07-07 03:51:54.130 ,5,0,1.,12.0,0.,12.0,0.,12.0,0.,12.0
1979-07-07 03:52:06.130 ,6,0,0.,12.0,0.,12.0,0.,12.0,0.,12.0
1979-07-07 03:52:18.130 ,6,0,0.,12.0,0.,12.0,0.,12.0,0.,12.0
1979-07-07 03:52:30.130 ,6,0,0.,12.0,0.,12.0,0.,12.0,0.,12.0
1979-07-07 03:52:42.130 ,6,0,0.,12.0,0.,12.0,0.,12.0,0.,12.0
1979-07-07 03:52:54.130 ,7,0,1.,12.0,0.,12.0,0.,12.0,0.,12.0
1979-07-07 03:53:06.130 ,7,0,0.,12.0,0.,12.0,0.,12.0,0.,12.0
1979-07-07 03:53:18.130 ,7,0,0.,12.0,0.,12.0,0.,12.0,0.,12.0
1979-07-07 03:53:30.130 ,7,0,0.,12.0,0.,12.0,0.,12.0,0.,12.0
1979-07-07 03:53:42.130 ,7,0,0.,12.0,0.,12.0,0.,12.0,0.,12.0
1979-07-07 03:53:54.130 ,7,0,0.,12.0,0.,12.0,0.,12.0,0.,12.0
1979-07-07 03:54:06.130 ,7,0,0.,12.0,0.,12.0,0.,12.0,0.,12.0
1979-07-07 03:54:18.130 ,7,0,0.,12.0,0.,12.0,0.,12.0,0.,12.0
1979-07-07 03:54:30.130 ,6,0,0.,12.0,0.,12.0,0.,12.0,0.,12.0
1979-07-07 03:54:42.130 ,6,0,1.,12.0,0.,12.0,0.,12.0,0.,12.0
1979-07-07 03:54:54.130 ,6,0,1.,12.0,0.,12.0,0.,12.0,0.,12.0
1979-07-07 03:55:06.130 ,6,0,0.,12.0,0.,12.0,0.,12.0,0.,12.0
1979-07-07 03:55:18.130 ,5,0,0.,12.0,0.,12.0,0.,12.0,0.,12.0
1979-07-07 03:55:30.130 ,5,0,0.,12.0,0.,12.0,0.,12.0,0.,12.0
1979-07-07 03:55:42.130 ,5,0,0.,12.0,0.,12.0,0.,12.0,0.,12.0
1979-07-07 03:55:54.130 ,5,0,1.,12.0,0.,12.0,0.,12.0,0.,12.0
1979-07-07 03:56:06.130 ,4,0,0.,12.0,0.,12.0,0.,12.0,0.,12.0
1979-07-07 03:56:18.130 ,4,0,0.,12.0,0.,12.0,0.,12.0,0.,12.0
1979-07-07 03:56:30.130 ,4,0,0.,12.0,0.,12.0,0.,12.0,0.,12.0
1979-07-07 03:56:42.130 ,4,0,1.,12.0,0.,12.0,0.,12.0,0.,12.0
1979-07-07 03:56:54.130 ,3,0,0.,12.0,0.,12.0,0.,12.0,0.,12.0
1979-07-07 03:57:06.130 ,3,0,0.,12.0,0.,12.0,0.,12.0,0.,12.0
1979-07-07 03:57:18.130 ,3,0,0.,12.0,0.,12.0,0.,12.0,0.,12.0
1979-07-07 03:57:30.130 ,3,0,1.,12.0,0.,12.0,0.,12.0,0.,12.0
1979-07-07 03:57:42.130 ,2,0,0.,12.0,0.,12.0,0.,12.0,0.,12.0
1979-07-07 03:57:54.130 ,2,0,0.,12.0,0.,12.0,0.,12.0,0.,12.0
1979-07-07 03:58:06.130 ,2,0,0.,12.0,0.,12.0,0.,12.0,0.,12.0
1979-07-07 03:58:18.130 ,2,0,1.,12.0,0.,12.0,0.,12.0,0.,12.0
1979-07-07 03:58:30.130 ,1,0,0.,12.0,0.,12.0,0.,12.0,0.,12.0
1979-07-07 03:58:42.130 ,1,0,0.,12.0,0.,12.0,0.,12.0,0.,12.0
1979-07-07 03:58:54.130 ,1,0,0.,12.0,0.,12.0,0.,12.0,0.,12.0
1979-07-07 03:59:06.130 ,1,0,0.,12.0,0.,12.0,0.,12.0,0.,12.0
1979-07-07 03:59:18.130 ,0,0,0.,12.0,0.,12.0,0.,12.0,0.,12.0
1979-07-07 03:59:30.130 ,0,0,0.,12.0,0.,12.0,0.,12.0,0.,12.0
1979-07-07 03:59:42.130 ,0,0,0.,12.0,0.,12.0,0.,12.0,0.,12.0
1979-07-07 03:59:54.130 ,0,0,0.,12.0,0.,12.0,0.,12.0,0.,12.0
1979-07-07 04:00:06.130 ,0,0,2.,12.0,0.,12.0,0.,12.0,0.,12.0
1979-07-07 04:00:18.130 ,0,0,0.,12.0,0.,12.0,0.,12.0,0.,12.0
1979-07-07 04:00:30.130 ,0,0,0.,12.0,0.,12.0,0.,12.0,0.,12.0
1979-07-07 04:00:42.130 ,0,0,0.,12.0,0.,12.0,0.,12.0,0.,12.0
1979-07-07 04:00:54.130 ,1,0,0.,12.0,0.,12.0,0.,12.0,0.,12.0
1979-07-07 04:01:06.130 ,1,0,1.,12.0,0.,12.0,0.,12.0,0.,12.0
1979-07-07 04:01:18.130 ,1,0,1.,12.0,0.,12.0,0.,12.0,0.,12.0
1979-07-07 04:01:30.130 ,1,0,0.,12.0,0.,12.0,0.,12.0,0.,12.0
1979-07-07 04:01:42.130 ,2,0,0.,12.0,0.,12.0,0.,12.0,0.,12.0
1979-07-07 04:01:54.130 ,2,0,0.,12.0,0.,12.0,0.,12.0,0.,12.0
1979-07-07 04:02:06.130 ,2,0,0.,12.0,0.,12.0,0.,12.0,0.,12.0
1979-07-07 04:02:18.130 ,2,0,0.,12.0,0.,12.0,0.,12.0,0.,12.0
1979-07-07 04:02:30.130 ,3,0,0.,12.0,0.,12.0,0.,12.0,0.,12.0
1979-07-07 04:02:42.130 ,3,0,0.,12.0,0.,12.0,0.,12.0,0.,12.0
1979-07-07 04:02:54.130 ,3,0,1.,12.0,0.,12.0,0.,12.0,0.,12.0
1979-07-07 04:03:06.130 ,3,0,0.,12.0,0.,12.0,0.,12.0,0.,12.0
1979-07-07 04:03:18.130 ,4,0,0.,12.0,0.,12.0,0.,12.0,0.,12.0
1979-07-07 04:03:30.130 ,4,0,0.,12.0,0.,12.0,0.,12.0,0.,12.0
1979-07-07 04:03:42.130 ,4,0,0.,12.0,0.,12.0,0.,12.0,0.,12.0
1979-07-07 04:03:54.130 ,4,0,0.,12.0,0.,12.0,0.,12.0,0.,12.0
1979-07-07 04:04:06.130 ,5,0,0.,12.0,0.,12.0,0.,12.0,0.,12.0
1979-07-07 04:04:18.130 ,5,0,0.,12.0,0.,12.0,0.,12.0,0.,12.0
1979-07-07 04:04:30.130 ,5,0,0.,12.0,1.,12.0,0.,12.0,0.,12.0
1979-07-07 04:04:42.130 ,5,0,1.,12.0,0.,12.0,0.,12.0,0.,12.0
1979-07-07 04:04:54.130 ,6,0,0.,12.0,0.,12.0,0.,12.0,0.,12.0
1979-07-07 04:05:06.130 ,6,0,0.,12.0,0.,12.0,0.,12.0,0.,12.0
1979-07-07 04:05:18.130 ,6,0,0.,12.0,0.,12.0,0.,12.0,0.,12.0
1979-07-07 04:05:30.130 ,6,0,0.,12.0,0.,12.0,0.,12.0,0.,12.0
1979-07-07 04:05:42.130 ,7,0,0.,12.0,0.,12.0,0.,12.0,0.,12.0
1979-07-07 04:05:54.130 ,7,0,0.,12.0,0.,12.0,0.,12.0,0.,12.0
1979-07-07 04:06:06.130 ,7,0,0.,12.0,0.,12.0,0.,12.0,0.,12.0
1979-07-07 04:06:18.130 ,7,0,0.,12.0,0.,12.0,0.,12.0,0.,12.0
1979-07-07 04:06:30.130 ,7,0,0.,12.0,0.,12.0,0.,12.0,0.,12.0
1979-07-07 04:06:42.130 ,7,0,0.,12.0,0.,12.0,0.,12.0,0.,12.0
1979-07-07 04:06:54.130 ,7,0,0.,12.0,0.,12.0,0.,12.0,0.,12.0
1979-07-07 04:07:06.130 ,7,0,0.,12.0,0.,12.0,0.,12.0,0.,12.0
1979-07-07 04:07:18.130 ,6,0,0.,12.0,0.,12.0,0.,12.0,0.,12.0
1979-07-07 04:07:30.130 ,6,0,0.,12.0,0.,12.0,0.,12.0,0.,12.0
1979-07-07 04:07:42.130 ,6,0,0.,12.0,0.,12.0,0.,12.0,0.,12.0
1979-07-07 04:07:54.130 ,6,0,2.,12.0,0.,12.0,0.,12.0,0.,12.0
1979-07-07 04:08:06.130 ,5,0,0.,12.0,0.,12.0,0.,12.0,0.,12.0
1979-07-07 04:08:18.130 ,5,0,0.,12.0,0.,12.0,0.,12.0,0.,12.0
1979-07-07 04:08:30.130 ,5,0,0.,12.0,0.,12.0,0.,12.0,0.,12.0
1979-07-07 04:08:42.130 ,5,0,0.,12.0,0.,12.0,0.,12.0,0.,12.0
1979-07-07 04:08:54.130 ,4,0,0.,12.0,0.,12.0,0.,12.0,0.,12.0
1979-07-07 04:09:06.130 ,4,0,0.,12.0,0.,12.0,0.,12.0,0.,12.0
1979-07-07 04:09:18.130 ,4,0,0.,12.0,0.,12.0,0.,12.0,0.,12.0
1979-07-07 04:09:30.130 ,4,0,1.,12.0,0.,12.0,0.,12.0,0.,12.0
1979-07-07 04:09:42.130 ,3,0,0.,12.0,0.,12.0,0.,12.0,0.,12.0
1979-07-07 04:09:54.130 ,3,0,0.,12.0,0.,12.0,0.,12.0,0.,12.0
1979-07-07 04:10:06.130 ,3,0,0.,12.0,0.,12.0,0.,12.0,0.,12.0
1979-07-07 04:10:18.130 ,3,0,0.,12.0,0.,12.0,0.,12.0,0.,12.0
1979-07-07 04:10:30.130 ,2,0,0.,12.0,0.,12.0,0.,12.0,0.,12.0
1979-07-07 04:10:42.130 ,2,0,0.,12.0,0.,12.0,0.,12.0,0.,12.0
1979-07-07 04:10:54.130 ,2,0,0.,12.0,0.,12.0,0.,12.0,0.,12.0
1979-07-07 04:11:06.130 ,2,0,0.,12.0,0.,12.0,0.,12.0,0.,12.0
1979-07-07 04:11:18.130 ,1,0,0.,12.0,0.,12.0,0.,12.0,0.,12.0
1979-07-07 04:11:30.130 ,1,0,0.,12.0,0.,12.0,0.,12.0,0.,12.0
1979-07-07 04:11:42.130 ,1,0,0.,12.0,0.,12.0,0.,12.0,0.,12.0
1979-07-07 04:11:54.130 ,1,0,0.,12.0,0.,12.0,0.,12.0,0.,12.0
1979-07-07 04:12:06.130 ,0,0,0.,12.0,0.,12.0,0.,12.0,0.,12.0
1979-07-07 04:12:18.130 ,0,0,0.,12.0,0.,12.0,0.,12.0,0.,12.0
1979-07-07 04:12:30.130 ,0,0,0.,12.0,0.,12.0,0.,12.0,0.,12.0
1979-07-07 04:12:42.130 ,0,0,0.,12.0,0.,12.0,0.,12.0,0.,12.0
1979-07-07 04:12:54.130 ,0,0,1.,12.0,0.,12.0,0.,12.0,0.,12.0
1979-07-07 04:13:06.130 ,0,0,0.,12.0,0.,12.0,0.,12.0,0.,12.0
1979-07-07 04:13:18.130 ,0,0,1.,12.0,0.,12.0,0.,12.0,0.,12.0
1979-07-07 04:13:30.130 ,0,0,0.,12.0,0.,12.0,0.,12.0,0.,12.0
1979-07-07 04:13:42.130 ,1,0,0.,12.0,0.,12.0,0.,12.0,0.,12.0
1979-07-07 04:13:54.130 ,1,0,0.,12.0,0.,12.0,0.,12.0,0.,12.0
1979-07-07 04:14:06.130 ,1,0,0.,12.0,0.,12.0,0.,12.0,0.,12.0
1979-07-07 04:14:18.130 ,1,0,0.,12.0,0.,12.0,0.,12.0,0.,12.0
1979-07-07 04:14:30.130 ,2,0,0.,12.0,0.,12.0,0.,12.0,0.,12.0
1979-07-07 04:14:42.130 ,2,0,0.,12.0,0.,12.0,0.,12.0,0.,12.0
1979-07-07 04:14:54.130 ,2,0,0.,12.0,0.,12.0,0.,12.0,0.,12.0
1979-07-07 04:15:06.130 ,2,0,0.,12.0,0.,12.0,0.,12.0,0.,12.0
1979-07-07 04:15:18.130 ,3,0,0.,12.0,0.,12.0,0.,12.0,0.,12.0
1979-07-07 04:15:30.130 ,3,0,0.,12.0,0.,12.0,0.,12.0,0.,12.0
1979-07-07 04:15:42.130 ,3,0,0.,12.0,0.,12.0,0.,12.0,0.,12.0
1979-07-07 04:15:54.130 ,3,0,0.,12.0,0.,12.0,0.,12.0,0.,12.0
1979-07-07 04:16:06.130 ,4,0,0.,12.0,0.,12.0,0.,12.0,0.,12.0
1979-07-07 04:16:18.130 ,4,0,0.,12.0,0.,12.0,0.,12.0,0.,12.0
1979-07-07 04:16:30.130 ,4,0,0.,12.0,0.,12.0,0.,12.0,0.,12.0
1979-07-07 04:16:42.130 ,4,0,0.,12.0,0.,12.0,0.,12.0,0.,12.0
1979-07-07 04:16:54.130 ,5,0,0.,12.0,0.,12.0,0.,12.0,0.,12.0
1979-07-07 04:17:06.130 ,5,0,0.,12.0,0.,12.0,0.,12.0,0.,12.0
1979-07-07 04:17:18.130 ,5,0,0.,12.0,0.,12.0,0.,12.0,0.,12.0
1979-07-07 04:17:30.130 ,5,0,0.,12.0,0.,12.0,0.,12.0,0.,12.0